www.pogodaiklimat.ru

Погода и климат >> Архив погоды >> Индия >> Западная Бенгалия >> Каннинг


ПОГОДА в Каннинге

  • Прогноз погоды в Каннинге
  • Монитор погоды в Каннинге

АРХИВ ПОГОДЫ в Каннинге

Время (UTC), дата Ветер
(напр.,м/с)
 
Видим.   Явления Облачность Т
(С)
Тd
(С)
f
(%)
Тe
(С)
Тes
(С)
Комфортность P
(гПа)
Po
(гПа)
Тmin
(С)
Tmax
(С)
R
(мм)
R24
(мм)
S
(см)
12 18.05 Ю 1 4000 м 3/3 600 м
[Sc]
+34.0 +28.6 74 +57 +57 опасность
перегрева
1002.3 1001.9 +38.0
03 19.05 штиль 0 4000 м ясно +32.0 +27.3 76 +50 +67 опасность
перегрева
1005.3 1004.8 +28.4
06 19.05 штиль 0 4000 м ясно +35.0 +28.2 68 +56 +86 опасность
перегрева
1004.6 1004.2
09 19.05 Ю 1 4000 м 3/3 600 м
[Sc]
+36.0 +27.8 63 +56 +67 опасность
перегрева
1002.6 1002.2
12 19.05 Ю 1 4000 м 3/3 600 м
[Sc]
+32.0 +29.3 86 +56 +57 опасность
перегрева
1001.7 1001.3 +37.4
03 20.05 штиль 0 4000 м 6/6 600 м
[Sc diur, vesp]
+31.6 +28.1 82 +52 +59 опасность
перегрева
1009.5 1009.0 +28.0
06 20.05 штиль 0 4000 м 6/6 600 м
[Sc diur, vesp]
+33.0 +28.1 76 +54 +66 опасность
перегрева
1008.9 1008.4
09 20.05 штиль 0 4000 м 3/3 600 м
[Sc]
+35.0 +28.2 68 +56 +68 опасность
перегрева
1006.8 1006.4
12 20.05 штиль 0 4000 м 3/3 600 м
[Sc]
+32.6 +29.1 82 +56 +57 опасность
перегрева
1005.9 1005.5 +36.0
03 21.05 ЮЗ 1 4000 м 6/6 600 м
[Sc diur, vesp]
+32.0 +27.0 75 +50 +56 опасность
перегрева
1007.8 1007.3 +28.4
06 21.05 ЮЗ 1 4000 м 6/6 600 м
[Sc diur, vesp]
+34.0 +27.1 67 +52 +62 опасность
перегрева
1007.3 1006.9
09 21.05 ЮЗ 1 4000 м 3/3 600 м
[Sc]
+35.4 +27.5 64 +55 +65 опасность
перегрева
1005.8 1005.4
12 21.05 ЮЗ 1 4000 м 3/3 600 м
[Sc]
+32.0 +28.8 83 +55 +55 опасность
перегрева
1004.9 1004.4 +36.0
03 22.05 Ю 1 4000 м 8/5 600 м
[Sc diur, vesp As op]
+32.0 +26.4 72 +48 +52 опасность
перегрева
1006.6 1006.1 +29.0
06 22.05 Ю 1 4000 м 6/6 600 м
[Sc diur, vesp]
+34.6 +26.9 64 +52 +63 опасность
перегрева
1005.9 1005.5
09 22.05 Ю 1 4000 м 4/4 600 м
[Sc]
+36.0 +27.8 63 +56 +65 опасность
перегрева
1004.6 1004.2
12 22.05 Ю 1 4000 м 4/4 600 м
[Sc]
+32.4 +29.2 83 +56 +57 опасность
перегрева
1003.9 1003.5 +36.4
03 23.05 Ю 1 4000 м 6/6 600 м
[Sc diur, vesp]
+29.0 +28.2 95 +48 +54 опасность
перегрева
1007.4 1006.9 +26.4
06 23.05 Ю 1 4000 м 6/6 600 м
[Sc diur, vesp]
+32.0 +27.9 79 +52 +63 опасность
перегрева
1006.8 1006.3
09 23.05 Ю 2 4000 м 6/6 600 м
[Sc diur, vesp]
+34.0 +27.7 70 +54 +60 опасность
перегрева
1005.2 1004.8
12 23.05 Ю 2 4000 м 6/6 600 м
[Sc diur, vesp]
+30.0 +29.2 95 +53 +53 опасность
перегрева
1004.6 1004.1 +35.0
03 24.05 Ю 2 4000 м 6/6 600 м
[Sc diur, vesp]
+32.0 +27.0 75 +50 +55 опасность
перегрева
1005.7 1005.2 +29.0
06 24.05 Ю 2 4000 м 6/6 600 м
[Sc diur, vesp]
+34.0 +27.1 67 +52 +62 опасность
перегрева
1005.1 1004.7
09 24.05 Ю 2 4000 м 6/6 600 м
[Sc diur, vesp]
+35.8 +26.1 57 +51 +57 опасность
перегрева
1006.7 1006.3
12 24.05 Ю 2 4000 м 6/6 600 м
[Sc diur, vesp]
+32.0 +27.6 78 +52 +52 опасность
перегрева
1005.6 1005.1 +36.2
03 25.05 штиль 0 4000 м 9/6 600 м
[Cb calv As op]
+29.0 +27.1 90 +46 +49 опасность
перегрева
1004.9 1004.4 +26.6 6
06 25.05 Ю 2 4000 м 8/5 600 м
[Sc diur, vesp As op]
+30.4 +27.1 83 +48 +54 опасность
перегрева
1004.5 1004.0

 

Местоположение метеостанции Каннинг (Западная Бенгалия, Индия): широта 22.25 долгота 88.67 высота над уровнем моря 4 м.

В архиве по умолчанию представлена погода в Каннинге за последнюю неделю. Архивные данные за месяц целиком и за предыдущие месяцы, начиная с января 2011 года, Вы можете получить, выбрав интересующий диапазон дат из раскрывающегося списка и нажав кнопку "Ввод!".


*Определитесь, кто Вы:
робот инопланетянин человек

Внимание! Время в таблицах - всемирное. Для получения местного времени необходимо прибавить поправку, которая равна 5.5 ч.

Смотрите также архив погоды в соседних городах и на ближайших метеорологических станциях:

Погода в Колкате (Западная Бенгалия, Индия) (47 км)
Погода в Бейсирхэте (Западная Бенгалия, Индия) (49 км)
Погода в Даймонд Харбор (Западная Бенгалия, Индия) (49 км)
Погода в Колката аэропорту (Западная Бенгалия, Индия) (50 км)
Погода в Саткхире (Бангладеш) (67 км)
Погода в Халдии (Западная Бенгалия, Индия) (69 км)
Погода в Улуберии (Западная Бенгалия, Индия) (79 км)
Погода в Багати (Западная Бенгалия, Индия) (87 км)
Погода в Монгле (Бангладеш) (94 км)
Погода в Кхулне (Бангладеш) (106 км)

Пояснения к столбцам:

Ветер - указаны скорость ветра в м/с - средняя за 10 мин, порывы в срок и между сроками (в фигурных скобках) и направление, откуда дует ветер: С - северный, СВ - северо-восточный, В - восточный, ЮВ - юго-восточный, Ю - южный, ЮЗ - юго-западный, З - западный, СЗ - северо-западный.
Видимость - горизонтальная дальность видимости в метрах или километрах. При видимости от 1 до 10 км при отсутствии осадков обычно наблюдается дымка, при ухудшении видимости до 1 км и менее - туман. В сухую погоду видимость может ухудшаться дымом, пылью или мглою.
Явления - указаны атмосферные явления, наблюдавшиеся в срок или в последний час перед сроком; фигурными скобками обозначены явления, наблюдавшиеся между сроками (за 1-3 часа до срока); квадратными скобками обозначены град или гололедные отложения с указанием их диаметра в мм.
Облачность - указаны через наклонную черту общая и нижняя облачность в баллах и высота нижней границы облаков в метрах; квадратными скобками обозначены формы облаков: Ci - перистые, Cs - перисто-слоистые, Cc - перисто-кучевые, Ac - высококучевые, As - высокослоистые, Sc - слоисто-кучевые, Ns - слоисто-дождевые, Cu - кучевые, Cb - кучево-дождевые. Подробнее классификацию облаков см. в Атласе облаков (PDF).
T - Температура воздуха - температура, измеренная на высоте 2 м над землей.
Td - Температура точки росы - температура, при понижении до которой содержащийся в воздухе водяной пар достигнет насыщения.
f - Относительная влажность воздуха - влажноcть воздуха, измеренная на высоте 2 м над землей.
Te - Эффективная температура - температура, которую ощущает одетый по сезону человек в тени. Характеристика душности погоды. При расчете учитывается влияние влажности воздуха и скорости ветра на теплоощущения человека.
Tes - Эффективная температура на солнце - температура, которую ощущает человек, с поправкой на солнечный нагрев. Характеристика знойности погоды. Зависит от высоты солнца над горизонтом, облачности и скорости ветра. Ночью, в пасмурную погоду, а также при ветре 12 м/с и более поправка равна нулю.
P - Атмосферное давление - приведенное к уровню моря атмосферное давление.
Po - Атмосферное давление - измеренное на уровне метеостанции атмосферное давление.
Tmin - Минимальная температура - минимум температуры воздуха на высоте 2 м над землей.
Tmax - Максимальная температура - максимум температуры воздуха на высоте 2 м над землей.
R - Количество осадков - Количество выпавших осадков за период времени, мм. При наведении курсора мыши на число - период времени, за который выпало указанное количество осадков.
R24 - Количество осадков - Количество выпавших осадков за 24 часа, мм.
S - Снежный покров - Высота снежного покрова, см. При наведении курсора мыши на число - состояние снежного покрова и степень покрытия местности в баллах.